Location: Binningen
(47.7924°N, 8.7261°E)
Time: 22:50:08
(UTC+00:00)

Cosmos 1666 - Pass Details

Date: 17 May 2021
Orbit: 496 x 518 km, 82.5° (Epoch: 24 June)

Event Time Altitude Azimuth Distance (km) Brightness Sun altitude
Rises 20:43:10 0° 340° (NNW) 2,597 7.8 -13.9°
Reaches altitude 10° 20:45:29 10° 329° (NNW) 1,707 6.7 -14.1°
Maximum altitude 20:48:42 28° 269° (W) 962 4.4 -14.5°
Drops below altitude 10° 20:51:54 10° 210° (SSW) 1,694 5.1 -14.8°
Enters shadow 20:52:27 - 206° (SSW) 1,893 5.3 -14.8°
